| time (UTC) | temp F | wind direction | speed MPH | gust MPH | rain 1hr in | rain 24hr in | rain mn in | humidity % | barometer mb |
| 20260507205056 | 78 | 63 | 3.0 | 8.0 | 0.00 | 0.00 | 0.00 | 72 | 1015.6 |
| 20260507204554 | 78 | 50 | 2.0 | 9.0 | 0.00 | 0.00 | 0.00 | 72 | 1015.6 |
| 20260507204051 | 78 | 51 | 3.0 | 9.0 | 0.00 | 0.00 | 0.00 | 71 | 1015.8 |
| 20260507203551 | 78 | 343 | 3.0 | 8.0 | 0.00 | 0.00 | 0.00 | 72 | 1015.7 |
| 20260507203050 | 77 | 68 | 2.0 | 7.0 | 0.00 | 0.00 | 0.00 | 72 | 1015.8 |
| 20260507202548 | 77 | 142 | 3.0 | 8.0 | 0.00 | 0.00 | 0.00 | 72 | 1015.8 |
| 20260507202047 | 77 | 334 | 4.0 | 11.0 | 0.00 | 0.00 | 0.00 | 73 | 1015.9 |
| 20260507201556 | 77 | 53 | 3.0 | 10.0 | 0.00 | 0.00 | 0.00 | 72 | 1016.0 |
| 20260507201047 | 76 | 64 | 2.0 | 10.0 | 0.00 | 0.00 | 0.00 | 73 | 1016.0 |
| 20260507200546 | 76 | 350 | 4.0 | 12.0 | 0.00 | 0.00 | 0.00 | 72 | 1016.0 |
| 20260507200042 | 76 | 51 | 6.0 | 12.0 | 0.00 | 0.00 | 0.00 | 72 | 1016.1 |
| 20260507195542 | 76 | 12 | 4.0 | 11.0 | 0.00 | 0.00 | 0.00 | 73 | 1016.1 |
| 20260507195040 | 76 | 61 | 3.0 | 10.0 | 0.00 | 0.00 | 0.00 | 73 | 1016.1 |
| 20260507194539 | 76 | 16 | 5.0 | 10.0 | 0.00 | 0.00 | 0.00 | 73 | 1016.1 |
| 20260507194039 | 75 | 57 | 2.0 | 11.0 | 0.00 | 0.00 | 0.00 | 74 | 1016.3 |
| 20260507193536 | 75 | 76 | 3.0 | 11.0 | 0.00 | 0.00 | 0.00 | 74 | 1016.3 |
| 20260507193047 | 75 | 350 | 4.0 | 12.0 | 0.00 | 0.00 | 0.00 | 74 | 1016.4 |
| 20260507192536 | 75 | 26 | 5.0 | 12.0 | 0.00 | 0.00 | 0.00 | 74 | 1016.6 |
| 20260507192035 | 74 | 42 | 4.0 | 11.0 | 0.00 | 0.00 | 0.00 | 75 | 1016.6 |
| 20260507191533 | 74 | 51 | 3.0 | 11.0 | 0.00 | 0.00 | 0.00 | 75 | 1016.7 |
| 20260507191032 | 74 | 65 | 4.0 | 11.0 | 0.00 | 0.00 | 0.00 | 75 | 1016.7 |
| 20260507190532 | 74 | 355 | 4.0 | 11.0 | 0.00 | 0.00 | 0.00 | 75 | 1016.9 |
| 20260507190033 | 74 | 15 | 3.0 | 8.0 | 0.00 | 0.00 | 0.00 | 75 | 1017.0 |
| 20260507185529 | 73 | 9 | 2.0 | 11.0 | 0.00 | 0.00 | 0.00 | 76 | 1016.9 |
| 20260507185030 | 73 | 42 | 4.0 | 11.0 | 0.00 | 0.00 | 0.00 | 76 | 1016.8 |
| 20260507184528 | 73 | 31 | 4.0 | 10.0 | 0.00 | 0.00 | 0.00 | 75 | 1016.9 |
| 20260507184027 | 73 | 30 | 3.0 | 11.0 | 0.00 | 0.00 | 0.00 | 76 | 1017.1 |
| 20260507183526 | 72 | 39 | 4.0 | 11.0 | 0.00 | 0.00 | 0.00 | 77 | 1017.0 |
| 20260507183026 | 72 | 49 | 5.0 | 11.0 | 0.00 | 0.00 | 0.00 | 76 | 1017.1 |
| 20260507182527 | 72 | 21 | 3.0 | 9.0 | 0.00 | 0.00 | 0.00 | 77 | 1017.2 |
| 20260507182025 | 72 | 18 | 2.0 | 13.0 | 0.00 | 0.00 | 0.00 | 76 | 1017.2 |
| 20260507181524 | 72 | 63 | 2.0 | 10.0 | 0.00 | 0.00 | 0.00 | 77 | 1017.2 |
| 20260507181026 | 72 | 332 | 3.0 | 10.0 | 0.00 | 0.00 | 0.00 | 77 | 1017.3 |
| 20260507180523 | 72 | 350 | 5.0 | 10.0 | 0.00 | 0.00 | 0.00 | 76 | 1017.3 |
| 20260507180025 | 72 | 345 | 5.0 | 10.0 | 0.00 | 0.00 | 0.00 | 76 | 1017.6 |
| 20260507175523 | 72 | 341 | 4.0 | 10.0 | 0.00 | 0.00 | 0.00 | 76 | 1017.5 |
| 20260507175022 | 71 | 69 | 4.0 | 10.0 | 0.00 | 0.00 | 0.00 | 77 | 1017.5 |
| 20260507174519 | 71 | 50 | 3.0 | 10.0 | 0.00 | 0.00 | 0.00 | 78 | 1017.4 |
| 20260507174018 | 70 | 22 | 4.0 | 10.0 | 0.00 | 0.00 | 0.00 | 78 | 1017.6 |
| 20260507173519 | 70 | 44 | 3.0 | 10.0 | 0.00 | 0.00 | 0.00 | 79 | 1017.6 |
| 20260507173030 | 70 | 5 | 5.0 | 12.0 | 0.00 | 0.00 | 0.00 | 78 | 1017.7 |
| 20260507172519 | 70 | 342 | 5.0 | 12.0 | 0.00 | 0.00 | 0.00 | 78 | 1017.8 |
| 20260507172021 | 69 | 33 | 3.0 | 12.0 | 0.00 | 0.00 | 0.00 | 79 | 1017.9 |
| 20260507171518 | 69 | 335 | 6.0 | 12.0 | 0.00 | 0.00 | 0.00 | 79 | 1017.9 |
| 20260507171021 | 69 | 66 | 4.0 | 9.0 | 0.00 | 0.00 | 0.00 | 80 | 1017.9 |
| 20260507170518 | 68 | 30 | 3.0 | 9.0 | 0.00 | 0.00 | 0.00 | 80 | 1018.0 |
| 20260507170017 | 68 | 32 | 2.0 | 10.0 | 0.00 | 0.02 | 0.00 | 80 | 1018.1 |
| 20260507165517 | 68 | 5 | 4.0 | 10.0 | 0.00 | 0.02 | 0.00 | 80 | 1018.1 |
| 20260507165016 | 68 | 5 | 3.0 | 11.0 | 0.00 | 0.02 | 0.00 | 80 | 1018.1 |
| 20260507164516 | 68 | 51 | 4.0 | 11.0 | 0.00 | 0.02 | 0.00 | 80 | 1017.9 |
| 20260507164016 | 68 | 40 | 3.0 | 10.0 | 0.00 | 0.02 | 0.00 | 80 | 1017.9 |
| 20260507163516 | 67 | 15 | 5.0 | 11.0 | 0.00 | 0.02 | 0.00 | 80 | 1017.7 |
| 20260507163015 | 68 | 15 | 6.0 | 11.0 | 0.00 | 0.02 | 0.00 | 80 | 1017.7 |
| 20260507162515 | 67 | 5 | 2.0 | 8.0 | 0.00 | 0.02 | 0.00 | 80 | 1017.7 |
| 20260507162015 | 67 | 5 | 3.0 | 7.0 | 0.00 | 0.02 | 0.00 | 81 | 1017.5 |
| 20260507161520 | 67 | 355 | 1.0 | 9.0 | 0.00 | 0.02 | 0.00 | 82 | 1017.4 |
| 20260507161014 | 66 | 57 | 3.0 | 10.0 | 0.00 | 0.02 | 0.00 | 82 | 1017.4 |
| 20260507160514 | 66 | 75 | 6.0 | 10.0 | 0.00 | 0.02 | 0.00 | 82 | 1017.4 |
| 20260507160013 | 66 | 328 | 4.0 | 11.0 | 0.00 | 0.02 | 0.00 | 83 | 1017.4 |
| 20260507155513 | 65 | 28 | 3.0 | 11.0 | 0.00 | 0.02 | 0.00 | 83 | 1017.7 |
| 20260507155013 | 65 | 349 | 4.0 | 11.0 | 0.00 | 0.02 | 0.00 | 83 | 1017.6 |
| 20260507154518 | 65 | 44 | 4.0 | 9.0 | 0.00 | 0.02 | 0.00 | 83 | 1017.8 |
| 20260507154012 | 65 | 63 | 3.0 | 9.0 | 0.00 | 0.02 | 0.00 | 84 | 1017.8 |
| 20260507153515 | 64 | 26 | 2.0 | 9.0 | 0.00 | 0.02 | 0.00 | 84 | 1017.7 |
| 20260507153012 | 64 | 334 | 2.0 | 9.0 | 0.00 | 0.02 | 0.00 | 84 | 1017.7 |
| 20260507152513 | 64 | 342 | 3.0 | 9.0 | 0.00 | 0.02 | 0.00 | 84 | 1017.7 |
| 20260507152011 | 64 | 360 | 4.0 | 9.0 | 0.00 | 0.02 | 0.00 | 84 | 1017.8 |
| 20260507151512 | 64 | 38 | 2.0 | 11.0 | 0.00 | 0.02 | 0.00 | 85 | 1017.9 |
| 20260507151011 | 64 | 94 | 5.0 | 11.0 | 0.00 | 0.02 | 0.00 | 85 | 1017.8 |
| 20260507150516 | 63 | 98 | 2.0 | 11.0 | 0.00 | 0.02 | 0.00 | 86 | 1017.8 |
| 20260507150010 | 63 | 67 | 4.0 | 11.0 | 0.00 | 0.02 | 0.00 | 86 | 1017.8 |
| 20260507145513 | 63 | 56 | 2.0 | 11.0 | 0.00 | 0.02 | 0.00 | 86 | 1018.1 |
| 20260507145008 | 64 | 346 | 6.0 | 11.0 | 0.00 | 0.02 | 0.00 | 86 | 1017.9 |
| 20260507144511 | 64 | 348 | 1.0 | 10.0 | 0.00 | 0.02 | 0.00 | 87 | 1017.7 |
| 20260507144009 | 64 | 333 | 5.0 | 10.0 | 0.00 | 0.02 | 0.00 | 86 | 1017.5 |
| 20260507143506 | 64 | 49 | 2.0 | 12.0 | 0.00 | 0.02 | 0.00 | 87 | 1017.4 |
| 20260507143007 | 64 | 25 | 4.0 | 12.0 | 0.00 | 0.02 | 0.00 | 87 | 1017.3 |
| 20260507142505 | 64 | 54 | 5.0 | 10.0 | 0.00 | 0.02 | 0.00 | 87 | 1017.3 |
| 20260507142010 | 64 | 47 | 4.0 | 10.0 | 0.00 | 0.02 | 0.00 | 87 | 1017.3 |
| 20260507141504 | 64 | 32 | 1.0 | 14.0 | 0.00 | 0.02 | 0.00 | 87 | 1017.0 |
| 20260507141006 | 64 | 348 | 5.0 | 14.0 | 0.00 | 0.02 | 0.00 | 87 | 1017.3 |
| 20260507140503 | 64 | 32 | 5.0 | 12.0 | 0.00 | 0.02 | 0.00 | 87 | 1017.2 |
| 20260507140006 | 64 | 355 | 5.0 | 13.0 | 0.00 | 0.02 | 0.00 | 87 | 1017.1 |
| 20260507135502 | 64 | 46 | 5.0 | 13.0 | 0.00 | 0.02 | 0.00 | 87 | 1017.1 |
| 20260507135002 | 64 | 28 | 5.0 | 12.0 | 0.00 | 0.02 | 0.00 | 87 | 1017.2 |
| 20260507134501 | 64 | 26 | 4.0 | 12.0 | 0.00 | 0.02 | 0.00 | 87 | 1017.4 |
| 20260507134100 | 64 | 325 | 3.0 | 12.0 | 0.00 | 0.02 | 0.00 | 87 | 1017.4 |
| 20260507133559 | 64 | 339 | 4.0 | 11.0 | 0.00 | 0.02 | 0.00 | 87 | 1017.6 |
| 20260507133059 | 64 | 9 | 5.0 | 10.0 | 0.00 | 0.02 | 0.00 | 86 | 1017.7 |
| 20260507132557 | 64 | 5 | 5.0 | 11.0 | 0.00 | 0.02 | 0.00 | 86 | 1017.7 |
| 20260507132056 | 65 | 360 | 5.0 | 11.0 | 0.00 | 0.02 | 0.00 | 86 | 1017.5 |
| 20260507131556 | 65 | 355 | 5.0 | 11.0 | 0.00 | 0.02 | 0.00 | 86 | 1017.8 |
| 20260507131056 | 65 | 13 | 1.0 | 8.0 | 0.00 | 0.02 | 0.00 | 85 | 1017.7 |
| 20260507130557 | 65 | 53 | 2.0 | 11.0 | 0.00 | 0.02 | 0.00 | 85 | 1017.7 |
| 20260507130105 | 65 | 12 | 3.0 | 11.0 | 0.00 | 0.02 | 0.00 | 85 | 1017.6 |
| 20260507125554 | 65 | 38 | 3.0 | 11.0 | 0.00 | 0.02 | 0.00 | 85 | 1017.7 |
| 20260507125053 | 65 | 30 | 4.0 | 11.0 | 0.00 | 0.02 | 0.00 | 85 | 1017.6 |
| 20260507124552 | 65 | 38 | 2.0 | 9.0 | 0.00 | 0.02 | 0.00 | 85 | 1017.4 |
| 20260507124051 | 65 | 341 | 2.0 | 9.0 | 0.00 | 0.02 | 0.00 | 85 | 1017.0 |
| 20260507123551 | 65 | 5 | 3.0 | 8.0 | 0.00 | 0.02 | 0.00 | 85 | 1017.1 |
| 20260507123051 | 65 | 76 | 3.0 | 9.0 | 0.00 | 0.02 | 0.00 | 85 | 1016.9 |
| 20260507122549 | 65 | 49 | 1.0 | 11.0 | 0.00 | 0.02 | 0.00 | 85 | 1017.0 |
| 20260507122047 | 65 | 65 | 2.0 | 11.0 | 0.00 | 0.02 | 0.00 | 85 | 1016.8 |
| 20260507121547 | 66 | 29 | 2.0 | 11.0 | 0.00 | 0.02 | 0.00 | 85 | 1016.7 |
| 20260507121046 | 66 | 48 | 5.0 | 12.0 | 0.00 | 0.02 | 0.00 | 85 | 1016.6 |
| 20260507120544 | 66 | 305 | 4.0 | 12.0 | 0.00 | 0.02 | 0.00 | 86 | 1016.7 |
| 20260507120046 | 66 | 333 | 3.0 | 12.0 | 0.00 | 0.02 | 0.00 | 86 | 1016.3 |
| 20260507115544 | 66 | 346 | 2.0 | 12.0 | 0.00 | 0.02 | 0.00 | 86 | 1016.3 |
| 20260507115042 | 66 | 351 | 3.0 | 12.0 | 0.00 | 0.02 | 0.00 | 86 | 1016.3 |
| 20260507114543 | 66 | 76 | 2.0 | 12.0 | 0.00 | 0.02 | 0.00 | 87 | 1016.2 |
| 20260507114044 | 66 | 10 | 3.0 | 7.0 | 0.00 | 0.02 | 0.00 | 87 | 1016.1 |
| 20260507113541 | 66 | 12 | 1.0 | 8.0 | 0.00 | 0.02 | 0.00 | 87 | 1015.8 |
| 20260507113040 | 66 | 327 | 2.0 | 8.0 | 0.00 | 0.02 | 0.00 | 87 | 1015.8 |
| 20260507112541 | 66 | 18 | 2.0 | 6.0 | 0.00 | 0.02 | 0.00 | 87 | 1015.6 |
| 20260507112039 | 66 | 350 | 1.0 | 6.0 | 0.00 | 0.02 | 0.00 | 87 | 1015.6 |
| 20260507111544 | 66 | 74 | 0.0 | 8.0 | 0.00 | 0.02 | 0.00 | 87 | 1015.7 |
| 20260507111042 | 66 | 360 | 2.0 | 8.0 | 0.00 | 0.02 | 0.00 | 87 | 1015.7 |
| 20260507110538 | 66 | 49 | 1.0 | 6.0 | 0.00 | 0.02 | 0.00 | 86 | 1015.4 |
| 20260507110038 | 66 | 330 | 3.0 | 6.0 | 0.00 | 0.02 | 0.00 | 86 | 1015.4 |
| 20260507105536 | 67 | 43 | 2.0 | 6.0 | 0.00 | 0.02 | 0.00 | 86 | 1015.6 |
| 20260507105040 | 67 | 70 | 0.0 | 7.0 | 0.00 | 0.02 | 0.00 | 86 | 1015.5 |
| 20260507104536 | 67 | 43 | 2.0 | 7.0 | 0.00 | 0.02 | 0.00 | 86 | 1015.3 |
| 20260507104038 | 67 | 67 | 0.0 | 3.0 | 0.00 | 0.02 | 0.00 | 86 | 1015.5 |
| 20260507103535 | 67 | 41 | 0.0 | 6.0 | 0.00 | 0.02 | 0.00 | 86 | 1015.3 |
| 20260507103039 | 67 | 67 | 1.0 | 6.0 | 0.00 | 0.02 | 0.00 | 86 | 1015.3 |
| 20260507102534 | 67 | 50 | 1.0 | 5.0 | 0.00 | 0.02 | 0.00 | 86 | 1015.4 |
| 20260507102034 | 67 | 38 | 0.0 | 4.0 | 0.00 | 0.02 | 0.00 | 86 | 1015.2 |
| 20260507101544 | 67 | 360 | 1.0 | 6.0 | 0.00 | 0.02 | 0.00 | 86 | 1015.2 |
| 20260507101032 | 67 | 46 | 2.0 | 8.0 | 0.00 | 0.02 | 0.00 | 86 | 1015.2 |
| 20260507100532 | 67 | 338 | 1.0 | 8.0 | 0.00 | 0.02 | 0.00 | 86 | 1015.2 |
| 20260507100037 | 67 | 15 | 1.0 | 6.0 | 0.00 | 0.02 | 0.00 | 86 | 1015.2 |
| 20260507095534 | 67 | 12 | 2.0 | 8.0 | 0.00 | 0.02 | 0.00 | 86 | 1015.0 |
| 20260507095033 | 67 | 69 | 1.0 | 8.0 | 0.00 | 0.02 | 0.00 | 86 | 1014.9 |
| 20260507094540 | 67 | 35 | 2.0 | 8.0 | 0.00 | 0.02 | 0.00 | 86 | 1014.8 |
| 20260507094030 | 67 | 5 | 2.0 | 8.0 | 0.00 | 0.02 | 0.00 | 86 | 1014.6 |
| 20260507093530 | 67 | 21 | 0.0 | 6.0 | 0.00 | 0.02 | 0.00 | 86 | 1014.4 |
| 20260507093035 | 67 | 32 | 0.0 | 8.0 | 0.00 | 0.02 | 0.00 | 86 | 1014.4 |
| 20260507092530 | 67 | 65 | 1.0 | 8.0 | 0.00 | 0.02 | 0.00 | 85 | 1014.3 |
| 20260507092028 | 67 | 355 | 2.0 | 10.0 | 0.00 | 0.02 | 0.00 | 85 | 1014.3 |
| 20260507091530 | 67 | 37 | 3.0 | 10.0 | 0.00 | 0.02 | 0.00 | 85 | 1014.4 |
| 20260507091032 | 67 | 350 | 2.0 | 10.0 | 0.00 | 0.02 | 0.00 | 85 | 1014.4 |
| 20260507090530 | 67 | 355 | 2.0 | 8.0 | 0.00 | 0.02 | 0.00 | 85 | 1014.4 |
| 20260507090033 | 67 | 355 | 2.0 | 10.0 | 0.00 | 0.02 | 0.00 | 85 | 1014.6 |
| 20260507085526 | 67 | 360 | 3.0 | 10.0 | 0.00 | 0.02 | 0.00 | 85 | 1014.6 |
| 20260507085126 | 67 | 329 | 2.0 | 9.0 | 0.00 | 0.02 | 0.00 | 85 | 1014.7 |
| 20260507084531 | 68 | 360 | 3.0 | 11.0 | 0.00 | 0.02 | 0.00 | 84 | 1014.7 |
| 20260507084024 | 68 | 346 | 2.0 | 11.0 | 0.00 | 0.02 | 0.00 | 84 | 1014.8 |
| 20260507083527 | 68 | 345 | 2.0 | 9.0 | 0.00 | 0.02 | 0.00 | 84 | 1014.8 |
| 20260507083024 | 68 | 327 | 2.0 | 9.0 | 0.00 | 0.02 | 0.00 | 84 | 1014.6 |
| 20260507082524 | 68 | 36 | 3.0 | 9.0 | 0.00 | 0.02 | 0.00 | 84 | 1014.5 |
| 20260507082023 | 68 | 30 | 3.0 | 6.0 | 0.00 | 0.02 | 0.00 | 84 | 1014.6 |
| 20260507081526 | 68 | 355 | 2.0 | 7.0 | 0.00 | 0.02 | 0.00 | 84 | 1014.5 |
| 20260507081023 | 68 | 21 | 1.0 | 7.0 | 0.00 | 0.02 | 0.00 | 84 | 1014.6 |
| 20260507080523 | 68 | 350 | 1.0 | 9.0 | 0.00 | 0.02 | 0.00 | 84 | 1014.6 |
| 20260507080022 | 68 | 346 | 2.0 | 6.0 | 0.00 | 0.02 | 0.00 | 84 | 1014.5 |
| 20260507075522 | 68 | 355 | 1.0 | 9.0 | 0.00 | 0.02 | 0.00 | 84 | 1014.5 |
| 20260507075024 | 68 | 5 | 1.0 | 10.0 | 0.00 | 0.02 | 0.00 | 84 | 1014.6 |
| 20260507074522 | 68 | 44 | 1.0 | 9.0 | 0.00 | 0.02 | 0.00 | 84 | 1014.7 |
| 20260507074021 | 68 | 28 | 3.0 | 9.0 | 0.00 | 0.02 | 0.00 | 84 | 1014.7 |
| 20260507073521 | 68 | 355 | 3.0 | 13.0 | 0.00 | 0.02 | 0.00 | 83 | 1014.7 |
| 20260507073021 | 68 | 24 | 5.0 | 11.0 | 0.00 | 0.02 | 0.00 | 83 | 1014.8 |
| 20260507072522 | 68 | 13 | 4.0 | 10.0 | 0.00 | 0.02 | 0.00 | 83 | 1014.7 |
| 20260507072019 | 68 | 319 | 4.0 | 10.0 | 0.00 | 0.02 | 0.00 | 83 | 1014.8 |
| 20260507071519 | 68 | 340 | 5.0 | 10.0 | 0.00 | 0.02 | 0.00 | 83 | 1014.9 |
| 20260507071018 | 68 | 319 | 3.0 | 12.0 | 0.00 | 0.02 | 0.00 | 83 | 1015.2 |
| 20260507070518 | 68 | 336 | 5.0 | 12.0 | 0.00 | 0.02 | 0.00 | 83 | 1015.1 |
| 20260507070020 | 68 | 18 | 4.0 | 11.0 | 0.00 | 0.02 | 0.00 | 83 | 1014.9 |
| 20260507065516 | 68 | 355 | 4.0 | 12.0 | 0.00 | 0.02 | 0.00 | 83 | 1014.9 |
| 20260507065016 | 68 | 331 | 5.0 | 12.0 | 0.00 | 0.02 | 0.00 | 83 | 1015.1 |
| 20260507064515 | 68 | 5 | 4.0 | 11.0 | 0.00 | 0.02 | 0.00 | 83 | 1015.0 |
| 20260507064014 | 69 | 355 | 4.0 | 9.0 | 0.00 | 0.02 | 0.00 | 83 | 1015.0 |
| 20260507063514 | 69 | 337 | 3.0 | 7.0 | 0.00 | 0.02 | 0.00 | 83 | 1014.9 |
| 20260507063014 | 69 | 338 | 1.0 | 7.0 | 0.00 | 0.02 | 0.00 | 83 | 1015.0 |
| 20260507062513 | 69 | 60 | 1.0 | 8.0 | 0.00 | 0.02 | 0.00 | 83 | 1015.1 |
| 20260507062012 | 69 | 351 | 4.0 | 10.0 | 0.00 | 0.02 | 0.00 | 82 | 1014.7 |
| 20260507061510 | 69 | 350 | 4.0 | 11.0 | 0.00 | 0.02 | 0.00 | 82 | 1014.7 |
| 20260507061012 | 69 | 5 | 6.0 | 11.0 | 0.00 | 0.02 | 0.00 | 82 | 1014.7 |
| 20260507060510 | 69 | 53 | 4.0 | 11.0 | 0.00 | 0.02 | 0.00 | 82 | 1014.7 |
| 20260507060009 | 69 | 338 | 4.0 | 11.0 | 0.00 | 0.02 | 0.00 | 82 | 1014.4 |
| 20260507055512 | 70 | 348 | 5.0 | 11.0 | 0.00 | 0.02 | 0.00 | 82 | 1014.5 |
| 20260507055010 | 70 | 350 | 4.0 | 9.0 | 0.00 | 0.02 | 0.00 | 82 | 1014.6 |
| 20260507054507 | 70 | 331 | 4.0 | 10.0 | 0.00 | 0.02 | 0.00 | 82 | 1014.6 |
| 20260507054005 | 70 | 5 | 3.0 | 11.0 | 0.00 | 0.02 | 0.00 | 82 | 1014.4 |
| 20260507053504 | 70 | 350 | 6.0 | 10.0 | 0.00 | 0.02 | 0.00 | 82 | 1014.3 |
| 20260507053004 | 70 | 18 | 4.0 | 11.0 | 0.00 | 0.02 | 0.00 | 82 | 1014.4 |
| 20260507052503 | 71 | 329 | 5.0 | 11.0 | 0.00 | 0.02 | 0.00 | 82 | 1014.3 |
| 20260507052002 | 71 | 330 | 3.0 | 11.0 | 0.00 | 0.02 | 0.00 | 82 | 1014.4 |
| 20260507051502 | 71 | 41 | 3.0 | 11.0 | 0.00 | 0.02 | 0.00 | 82 | 1014.4 |
| 20260507051100 | 71 | 30 | 3.0 | 11.0 | 0.00 | 0.02 | 0.00 | 82 | 1014.5 |
| 20260507050559 | 71 | 348 | 4.0 | 9.0 | 0.00 | 0.02 | 0.00 | 82 | 1014.5 |
| 20260507050059 | 71 | 348 | 3.0 | 11.0 | 0.00 | 0.02 | 0.00 | 82 | 1014.5 |
| 20260507045558 | 71 | 9 | 4.0 | 11.0 | 0.00 | 0.02 | 0.02 | 82 | 1014.4 |
| 20260507045058 | 71 | 342 | 5.0 | 10.0 | 0.00 | 0.02 | 0.02 | 82 | 1014.4 |
| 20260507044601 | 71 | 345 | 3.0 | 9.0 | 0.00 | 0.02 | 0.02 | 81 | 1014.5 |
| 20260507044056 | 71 | 339 | 3.0 | 10.0 | 0.00 | 0.02 | 0.02 | 81 | 1014.5 |
| 20260507043556 | 71 | 355 | 3.0 | 9.0 | 0.00 | 0.02 | 0.02 | 81 | 1014.3 |
| 20260507043057 | 72 | 345 | 4.0 | 9.0 | 0.00 | 0.02 | 0.02 | 81 | 1014.2 |
| 20260507042554 | 72 | 19 | 3.0 | 8.0 | 0.00 | 0.02 | 0.02 | 82 | 1014.3 |
| 20260507042053 | 72 | 17 | 2.0 | 10.0 | 0.00 | 0.02 | 0.02 | 82 | 1014.3 |
| 20260507041552 | 72 | 41 | 4.0 | 10.0 | 0.00 | 0.02 | 0.02 | 81 | 1014.5 |
| 20260507041052 | 72 | 350 | 5.0 | 10.0 | 0.00 | 0.02 | 0.02 | 81 | 1014.5 |
| 20260507040550 | 72 | 26 | 4.0 | 11.0 | 0.00 | 0.02 | 0.02 | 81 | 1014.5 |
| 20260507040050 | 72 | 35 | 3.0 | 11.0 | 0.00 | 0.02 | 0.02 | 82 | 1014.4 |
| 20260507035549 | 73 | 13 | 5.0 | 11.0 | 0.00 | 0.02 | 0.02 | 82 | 1014.4 |
| 20260507035048 | 73 | 328 | 4.0 | 10.0 | 0.00 | 0.02 | 0.02 | 81 | 1014.2 |
| 20260507034550 | 73 | 360 | 3.0 | 12.0 | 0.00 | 0.02 | 0.02 | 82 | 1014.2 |
| 20260507034046 | 73 | 327 | 4.0 | 9.0 | 0.00 | 0.02 | 0.02 | 81 | 1014.3 |
| 20260507033546 | 73 | 20 | 3.0 | 10.0 | 0.00 | 0.02 | 0.02 | 82 | 1014.1 |
| 20260507033044 | 73 | 329 | 3.0 | 10.0 | 0.00 | 0.02 | 0.02 | 82 | 1014.0 |
| 20260507032543 | 74 | 355 | 5.0 | 10.0 | 0.00 | 0.02 | 0.02 | 82 | 1014.0 |
| 20260507032041 | 74 | 51 | 3.0 | 9.0 | 0.00 | 0.02 | 0.02 | 82 | 1013.8 |
| 20260507031541 | 74 | 339 | 2.0 | 10.0 | 0.00 | 0.02 | 0.02 | 82 | 1013.7 |
| 20260507031040 | 74 | 17 | 3.0 | 10.0 | 0.00 | 0.02 | 0.02 | 82 | 1013.5 |
| 20260507030541 | 74 | 335 | 5.0 | 11.0 | 0.00 | 0.02 | 0.02 | 82 | 1013.4 |
| 20260507030037 | 74 | 13 | 3.0 | 10.0 | 0.00 | 0.02 | 0.02 | 81 | 1013.3 |
| 20260507025536 | 75 | 349 | 5.0 | 11.0 | 0.00 | 0.02 | 0.02 | 82 | 1013.4 |
| 20260507025035 | 75 | 327 | 3.0 | 11.0 | 0.00 | 0.02 | 0.02 | 82 | 1013.3 |
| 20260507024539 | 75 | 350 | 5.0 | 9.0 | 0.00 | 0.02 | 0.02 | 82 | 1013.2 |
| 20260507024033 | 75 | 321 | 3.0 | 13.0 | 0.00 | 0.02 | 0.02 | 82 | 1013.1 |
| 20260507023532 | 76 | 325 | 3.0 | 13.0 | 0.00 | 0.02 | 0.02 | 82 | 1012.9 |
| 20260507023030 | 76 | 334 | 7.0 | 12.0 | 0.00 | 0.02 | 0.02 | 82 | 1012.8 |
| 20260507022532 | 76 | 355 | 3.0 | 12.0 | 0.00 | 0.02 | 0.02 | 83 | 1012.7 |
| 20260507022031 | 76 | 324 | 4.0 | 12.0 | 0.00 | 0.02 | 0.02 | 83 | 1012.5 |
| 20260507021531 | 76 | 328 | 2.0 | 7.0 | 0.00 | 0.02 | 0.02 | 83 | 1012.4 |
| 20260507021029 | 76 | 285 | 1.0 | 11.0 | 0.00 | 0.02 | 0.02 | 83 | 1012.4 |
| 20260507020529 | 76 | 360 | 3.0 | 11.0 | 0.00 | 0.02 | 0.02 | 83 | 1012.3 |
| 20260507020041 | 77 | 341 | 4.0 | 9.0 | 0.00 | 0.02 | 0.02 | 83 | 1012.3 |
| 20260507015532 | 77 | 48 | 2.0 | 10.0 | 0.00 | 0.02 | 0.02 | 83 | 1012.2 |
| 20260507015029 | 77 | 345 | 4.0 | 10.0 | 0.00 | 0.02 | 0.02 | 83 | 1012.1 |
| 20260507014627 | 77 | 319 | 2.0 | 11.0 | 0.00 | 0.02 | 0.02 | 83 | 1011.9 |
| 20260507014030 | 77 | 355 | 3.0 | 10.0 | 0.00 | 0.02 | 0.02 | 83 | 1012.0 |
| 20260507013526 | 77 | 288 | 2.0 | 11.0 | 0.00 | 0.02 | 0.02 | 83 | 1012.0 |
| 20260507013030 | 77 | 49 | 2.0 | 8.0 | 0.00 | 0.02 | 0.02 | 82 | 1011.8 |
| 20260507012526 | 78 | 5 | 1.0 | 8.0 | 0.00 | 0.02 | 0.02 | 82 | 1011.8 |
| 20260507012026 | 78 | 355 | 3.0 | 9.0 | 0.00 | 0.02 | 0.02 | 82 | 1011.6 |
| 20260507011526 | 78 | 36 | 2.0 | 12.0 | 0.00 | 0.02 | 0.02 | 82 | 1011.4 |
| 20260507011025 | 79 | 355 | 4.0 | 12.0 | 0.00 | 0.02 | 0.02 | 81 | 1011.4 |
| 20260507010525 | 80 | 294 | 4.0 | 9.0 | 0.00 | 0.02 | 0.02 | 81 | 1011.2 |
| 20260507010028 | 81 | 324 | 1.0 | 9.0 | 0.00 | 0.02 | 0.02 | 81 | 1011.1 |
| 20260507005525 | 82 | 281 | 1.0 | 7.0 | 0.00 | 0.02 | 0.02 | 85 | 1011.0 |
| 20260507005026 | 82 | 156 | 0.0 | 6.0 | 0.00 | 0.02 | 0.02 | 85 | 1010.4 |
| 20260507004530 | 82 | 167 | 3.0 | 6.0 | 0.00 | 0.02 | 0.02 | 85 | 1010.3 |
| 20260507004024 | 82 | 163 | 1.0 | 5.0 | 0.00 | 0.02 | 0.02 | 84 | 1010.4 |
| 20260507003524 | 82 | 156 | 0.0 | 7.0 | 0.00 | 0.02 | 0.02 | 84 | 1010.3 |
| 20260507003028 | 83 | 159 | 1.0 | 7.0 | 0.00 | 0.02 | 0.02 | 84 | 1010.2 |
| 20260507002523 | 83 | 123 | 2.0 | 5.0 | 0.00 | 0.02 | 0.02 | 84 | 1010.1 |
| 20260507002024 | 83 | 180 | 1.0 | 9.0 | 0.00 | 0.02 | 0.02 | 84 | 1010.2 |
| 20260507001534 | 83 | 173 | 2.0 | 9.0 | 0.00 | 0.02 | 0.02 | 84 | 1010.1 |
| 20260507001023 | 83 | 156 | 3.0 | 9.0 | 0.00 | 0.02 | 0.02 | 83 | 1010.1 |
| 20260507000523 | 83 | 189 | 1.0 | 5.0 | 0.00 | 0.02 | 0.02 | 83 | 1010.2 |
| 20260507000023 | 83 | 153 | 1.0 | 7.0 | 0.00 | 0.02 | 0.02 | 83 | 1009.9 |
| 20260506235524 | 84 | 174 | 1.0 | 7.0 | 0.00 | 0.02 | 0.02 | 83 | 1009.9 |
| 20260506235023 | 84 | 154 | 3.0 | 10.0 | 0.00 | 0.02 | 0.02 | 83 | 1010.0 |
| 20260506234523 | 84 | 156 | 4.0 | 10.0 | 0.00 | 0.02 | 0.02 | 82 | 1010.1 |
| 20260506234023 | 84 | 165 | 3.0 | 9.0 | 0.00 | 0.02 | 0.02 | 81 | 1010.0 |
| 20260506233522 | 85 | 183 | 5.0 | 9.0 | 0.00 | 0.02 | 0.02 | 81 | 1010.0 |
| 20260506233022 | 85 | 184 | 3.0 | 5.0 | 0.00 | 0.02 | 0.02 | 80 | 1009.8 |
| 20260506232521 | 85 | 141 | 2.0 | 7.0 | 0.00 | 0.02 | 0.02 | 81 | 1009.9 |
| 20260506232022 | 85 | 144 | 2.0 | 7.0 | 0.00 | 0.02 | 0.02 | 81 | 1009.9 |
| 20260506231521 | 85 | 180 | 4.0 | 8.0 | 0.00 | 0.02 | 0.02 | 80 | 1009.8 |
| 20260506231021 | 85 | 142 | 3.0 | 7.0 | 0.00 | 0.02 | 0.02 | 80 | 1009.9 |
| 20260506230524 | 85 | 186 | 4.0 | 9.0 | 0.00 | 0.02 | 0.02 | 80 | 1009.8 |
| 20260506230020 | 85 | 163 | 3.0 | 9.0 | 0.00 | 0.02 | 0.02 | 80 | 1009.8 |
| 20260506225521 | 85 | 165 | 3.0 | 6.0 | 0.00 | 0.02 | 0.02 | 79 | 1009.9 |
| 20260506225020 | 85 | 168 | 1.0 | 4.0 | 0.00 | 0.02 | 0.02 | 79 | 1009.8 |
| 20260506224520 | 85 | 185 | 1.0 | 6.0 | 0.00 | 0.02 | 0.02 | 78 | 1009.9 |
| 20260506224019 | 85 | 168 | 2.0 | 7.0 | 0.00 | 0.02 | 0.02 | 78 | 1009.8 |
| 20260506223519 | 85 | 159 | 0.0 | 5.0 | 0.00 | 0.02 | 0.02 | 79 | 1009.8 |
| 20260506223019 | 85 | 153 | 2.0 | 6.0 | 0.00 | 0.02 | 0.02 | 79 | 1009.7 |
| 20260506222522 | 85 | 175 | 0.0 | 5.0 | 0.00 | 0.02 | 0.02 | 79 | 1009.6 |
| 20260506222018 | 85 | 95 | 1.0 | 5.0 | 0.00 | 0.02 | 0.02 | 79 | 1009.6 |
| 20260506221518 | 85 | 161 | 2.0 | 6.0 | 0.00 | 0.02 | 0.02 | 78 | 1009.5 |
| 20260506221018 | 86 | 148 | 2.0 | 8.0 | 0.00 | 0.02 | 0.02 | 77 | 1009.5 |
| 20260506220518 | 86 | 178 | 3.0 | 8.0 | 0.00 | 0.02 | 0.02 | 77 | 1009.6 |
| 20260506220018 | 86 | 173 | 2.0 | 6.0 | 0.00 | 0.02 | 0.02 | 77 | 1009.6 |
| 20260506215517 | 86 | 168 | 1.0 | 7.0 | 0.00 | 0.02 | 0.02 | 76 | 1009.6 |
| 20260506215017 | 86 | 171 | 2.0 | 8.0 | 0.00 | 0.02 | 0.02 | 75 | 1009.5 |
| 20260506214516 | 86 | 232 | 1.0 | 8.0 | 0.00 | 0.02 | 0.02 | 75 | 1009.4 |
| 20260506214020 | 86 | 204 | 1.0 | 9.0 | 0.00 | 0.02 | 0.02 | 75 | 1009.5 |
| 20260506213516 | 86 | 233 | 1.0 | 9.0 | 0.00 | 0.02 | 0.02 | 75 | 1009.5 |
| 20260506213015 | 87 | 173 | 5.0 | 9.0 | 0.00 | 0.02 | 0.02 | 75 | 1009.5 |
| 20260506212515 | 87 | 193 | 3.0 | 6.0 | 0.00 | 0.02 | 0.02 | 76 | 1009.4 |
| 20260506212016 | 86 | 188 | 2.0 | 8.0 | 0.00 | 0.02 | 0.02 | 77 | 1009.5 |
| 20260506211513 | 86 | 167 | 3.0 | 8.0 | 0.00 | 0.02 | 0.02 | 76 | 1009.7 |
| 20260506211013 | 86 | 144 | 5.0 | 8.0 | 0.00 | 0.02 | 0.02 | 76 | 1009.8 |
| 20260506210513 | 86 | 165 | 2.0 | 7.0 | 0.00 | 0.02 | 0.02 | 76 | 1009.8 |
| 20260506210019 | 86 | 208 | 2.0 | 9.0 | 0.00 | 0.02 | 0.02 | 77 | 1009.9 |
| 20260506205512 | 86 | 192 | 2.0 | 6.0 | 0.00 | 0.02 | 0.02 | 76 | 1009.9 |